Regional Weather Roundup
Issued by NWS Goodland, KS

Home | Current Version | Previous Version | Text Only | Print | Product List | Glossary Off
Versions: 1 2 3 4 5 6 7 8 9 10 11 12 13 14 15 16 17 18 19 20 21 22 23 24 25 26 27 28 29 30 31 32 33 34 35 36 37 38 39 40 41 42 43 44 45 46 47 48 49 50

215
ASUS43 KGLD 231159
RWRGLD

GOODLAND FORECAST AREA HOURLY WEATHER ROUNDUP
NATIONAL WEATHER SERVICE GOODLAND KS
500 AM MST TUE JAN 23 2018

...OFFICIAL OBSERVATIONS...

CITY           SKY/WX    TMP DP  RH WIND       PRES   REMARKS
GOODLAND KS    PTCLDY    18  11  74 W14       30.14R WCI   4
HILL CITY KS   CLEAR     21  14  74 NW10      30.15R WCI  10
IMPERIAL NEB   MOCLDY    23  17  78 NW9       30.13R
MCCOOK NEB     PTCLDY    20  12  71 W15       30.13R WCI   6
AKRON CO       CLEAR     22  15  75 NW14      30.13R WCI   9
BURLINGTON CO  PTCLDY    14   7  73 W8        30.15R
LIMON CO       PTCLDY     5   1  83 N6        30.15R
$$

...UNOFFICIAL OBSERVATIONS...

CITY           SKY/WX    TMP DP  RH WIND       PRES   REMARKS
LENORA KS        N/A     20  32 100 CALM        N/A
NORTON KS      CLEAR     18   9  68 W14       30.11  WCI   4
SHARON SPRINGS   N/A     16  11  79 W9          N/A
KIT CARSON CO    N/A     14   6  72 MISG        N/A
YUMA CO        FAIR      21  12  68 W10       30.14R WCI  10
$$




USA.gov is the U.S. government's official web portal to all federal, state and local government web resources and services.